START_TIME,STEP,MOV.,P11,t_acc.,P23,t_acc.,P27,t_acc.,A4,t_acc.
1979-07-24 12:00:22.580 ,0,0,1.,4.8,0.,4.8,0.,4.8,0.,4.8
1979-07-24 12:00:27.380 ,0,0,0.,4.8,0.,4.8,0.,4.8,0.,4.8
1979-07-24 12:00:32.180 ,0,0,3.,4.8,0.,4.8,0.,4.8,0.,4.8
1979-07-24 12:00:36.980 ,0,0,3.,4.8,0.,4.8,0.,4.8,0.,4.8
1979-07-24 12:00:41.780 ,0,0,1.,4.8,0.,4.8,0.,4.8,0.,4.8
1979-07-24 12:00:46.580 ,1,0,3.,4.8,0.,4.8,0.,4.8,0.,4.8
1979-07-24 12:00:51.380 ,1,0,1.,4.8,0.,4.8,0.,4.8,0.,4.8
1979-07-24 12:00:56.180 ,1,0,2.,4.8,0.,4.8,1.,4.8,0.,4.8
1979-07-24 12:01:00.980 ,1,0,1.,4.8,0.,4.8,0.,4.8,0.,4.8
1979-07-24 12:01:05.780 ,1,0,0.,4.8,0.,4.8,0.,4.8,0.,4.8
1979-07-24 12:01:10.580 ,1,0,1.,4.8,0.,4.8,0.,4.8,0.,4.8
1979-07-24 12:01:15.380 ,1,0,0.,4.8,0.,4.8,0.,4.8,0.,4.8
1979-07-24 12:01:20.180 ,1,0,1.,4.8,0.,4.8,1.,4.8,0.,4.8
1979-07-24 12:01:24.980 ,1,0,2.,4.8,0.,4.8,0.,4.8,0.,4.8
1979-07-24 12:01:29.780 ,1,0,2.,4.8,0.,4.8,1.,4.8,0.,4.8
1979-07-24 12:01:34.580 ,2,0,0.,4.8,0.,4.8,0.,4.8,0.,4.8
1979-07-24 12:01:39.380 ,2,0,7.,4.8,0.,4.8,0.,4.8,0.,4.8
1979-07-24 12:01:44.180 ,2,0,1.,4.8,0.,4.8,0.,4.8,0.,4.8
1979-07-24 12:01:48.980 ,2,0,1.,4.8,0.,4.8,0.,4.8,0.,4.8
1979-07-24 12:01:53.780 ,2,0,1.,4.8,0.,4.8,0.,4.8,0.,4.8
1979-07-24 12:01:58.580 ,2,0,1.,4.8,0.,4.8,0.,4.8,0.,4.8
1979-07-24 12:02:03.380 ,2,0,2.,4.8,0.,4.8,0.,4.8,0.,4.8
1979-07-24 12:02:08.180 ,2,0,2.,4.8,0.,4.8,0.,4.8,0.,4.8
1979-07-24 12:02:12.980 ,2,0,2.,4.8,0.,4.8,0.,4.8,0.,4.8
1979-07-24 12:02:17.780 ,2,0,3.,4.8,0.,4.8,0.,4.8,0.,4.8
1979-07-24 12:02:22.580 ,3,0,1.,4.8,0.,4.8,1.,4.8,0.,4.8
1979-07-24 12:02:27.380 ,3,0,0.,4.8,0.,4.8,1.,4.8,0.,4.8
1979-07-24 12:02:32.180 ,3,0,1.,4.8,0.,4.8,0.,4.8,0.,4.8
1979-07-24 12:02:36.980 ,3,0,2.,4.8,0.,4.8,0.,4.8,0.,4.8
1979-07-24 12:02:41.780 ,3,0,1.,4.8,0.,4.8,0.,4.8,0.,4.8
1979-07-24 12:02:46.580 ,3,0,2.,4.8,0.,4.8,0.,4.8,0.,4.8
1979-07-24 12:02:51.380 ,3,0,1.,4.8,0.,4.8,1.,4.8,0.,4.8
1979-07-24 12:02:56.180 ,3,0,2.,4.8,0.,4.8,0.,4.8,0.,4.8
1979-07-24 12:03:00.980 ,3,0,3.,4.8,0.,4.8,1.,4.8,0.,4.8
1979-07-24 12:03:05.780 ,3,0,3.,4.8,0.,4.8,0.,4.8,0.,4.8
1979-07-24 12:03:10.580 ,4,0,2.,4.8,0.,4.8,0.,4.8,0.,4.8
1979-07-24 12:03:15.380 ,4,0,0.,4.8,0.,4.8,0.,4.8,0.,4.8
1979-07-24 12:03:20.180 ,4,0,6.,4.8,0.,4.8,0.,4.8,0.,4.8
1979-07-24 12:03:24.980 ,4,0,0.,4.8,0.,4.8,0.,4.8,0.,4.8
1979-07-24 12:03:29.780 ,4,0,1.,4.8,0.,4.8,0.,4.8,0.,4.8
1979-07-24 12:03:34.580 ,4,0,2.,4.8,0.,4.8,0.,4.8,0.,4.8
1979-07-24 12:03:39.380 ,4,0,3.,4.8,0.,4.8,0.,4.8,0.,4.8
1979-07-24 12:03:44.180 ,4,0,3.,4.8,0.,4.8,0.,4.8,0.,4.8
1979-07-24 12:03:48.980 ,4,0,2.,4.8,0.,4.8,0.,4.8,0.,4.8
1979-07-24 12:03:53.780 ,4,0,0.,4.8,0.,4.8,0.,4.8,0.,4.8
1979-07-24 12:03:58.580 ,5,0,5.,4.8,0.,4.8,0.,4.8,0.,4.8
1979-07-24 12:04:03.380 ,5,0,4.,4.8,0.,4.8,0.,4.8,0.,4.8
1979-07-24 12:04:08.180 ,5,0,4.,4.8,0.,4.8,0.,4.8,0.,4.8
1979-07-24 12:04:12.980 ,5,0,2.,4.8,0.,4.8,1.,4.8,0.,4.8
1979-07-24 12:04:17.780 ,5,0,2.,4.8,0.,4.8,0.,4.8,0.,4.8
1979-07-24 12:04:22.580 ,5,0,1.,4.8,0.,4.8,0.,4.8,0.,4.8
1979-07-24 12:04:27.380 ,5,0,3.,4.8,0.,4.8,0.,4.8,0.,4.8
1979-07-24 12:04:32.180 ,5,0,2.,4.8,0.,4.8,0.,4.8,0.,4.8
1979-07-24 12:04:36.980 ,5,0,2.,4.8,0.,4.8,0.,4.8,0.,4.8
1979-07-24 12:04:41.780 ,5,0,1.,4.8,0.,4.8,0.,4.8,0.,4.8
1979-07-24 12:04:46.580 ,6,0,3.,4.8,0.,4.8,0.,4.8,0.,4.8
1979-07-24 12:04:51.380 ,6,0,1.,4.8,0.,4.8,1.,4.8,0.,4.8
1979-07-24 12:04:56.180 ,6,0,0.,4.8,0.,4.8,0.,4.8,0.,4.8
1979-07-24 12:05:00.980 ,6,0,2.,4.8,0.,4.8,0.,4.8,0.,4.8
1979-07-24 12:05:05.780 ,6,0,1.,4.8,0.,4.8,1.,4.8,0.,4.8
1979-07-24 12:05:10.580 ,6,0,1.,4.8,0.,4.8,0.,4.8,0.,4.8
1979-07-24 12:05:15.380 ,6,0,4.,4.8,0.,4.8,0.,4.8,0.,4.8
1979-07-24 12:05:20.180 ,6,0,4.,4.8,0.,4.8,0.,4.8,0.,4.8
1979-07-24 12:05:24.980 ,6,0,5.,4.8,0.,4.8,0.,4.8,0.,4.8
1979-07-24 12:05:29.780 ,6,0,1.,4.8,0.,4.8,0.,4.8,0.,4.8
1979-07-24 12:05:34.580 ,7,0,6.,4.8,0.,4.8,1.,4.8,0.,4.8
1979-07-24 12:05:39.380 ,7,0,3.,4.8,0.,4.8,0.,4.8,0.,4.8
1979-07-24 12:05:44.180 ,7,0,1.,4.8,0.,4.8,0.,4.8,0.,4.8
1979-07-24 12:05:48.980 ,7,0,0.,4.8,0.,4.8,0.,4.8,0.,4.8
1979-07-24 12:05:53.780 ,7,0,2.,4.8,0.,4.8,0.,4.8,0.,4.8
1979-07-24 12:05:58.580 ,7,0,1.,4.8,0.,4.8,0.,4.8,0.,4.8
1979-07-24 12:06:03.380 ,7,0,2.,4.8,0.,4.8,0.,4.8,0.,4.8
1979-07-24 12:06:08.180 ,7,0,0.,4.8,0.,4.8,2.,4.8,0.,4.8
1979-07-24 12:06:12.980 ,7,0,4.,4.8,1.,4.8,0.,4.8,0.,4.8
1979-07-24 12:06:17.780 ,7,0,0.,4.8,0.,4.8,0.,4.8,0.,4.8
1979-07-24 12:06:22.580 ,7,0,0.,4.8,1.,4.8,0.,4.8,0.,4.8
1979-07-24 12:06:27.380 ,7,0,1.,4.8,0.,4.8,0.,4.8,0.,4.8
1979-07-24 12:06:32.180 ,7,0,0.,4.8,0.,4.8,0.,4.8,0.,4.8
1979-07-24 12:06:36.980 ,7,0,2.,4.8,0.,4.8,0.,4.8,0.,4.8
1979-07-24 12:06:41.780 ,7,0,4.,4.8,1.,4.8,0.,4.8,0.,4.8
1979-07-24 12:06:46.580 ,7,0,0.,4.8,0.,4.8,1.,4.8,0.,4.8
1979-07-24 12:06:51.380 ,7,0,2.,4.8,0.,4.8,0.,4.8,0.,4.8
1979-07-24 12:06:56.180 ,7,0,1.,4.8,0.,4.8,0.,4.8,0.,4.8
1979-07-24 12:07:00.980 ,7,0,3.,4.8,0.,4.8,0.,4.8,0.,4.8
1979-07-24 12:07:05.780 ,7,0,0.,4.8,0.,4.8,0.,4.8,0.,4.8
1979-07-24 12:07:10.580 ,6,0,0.,4.8,0.,4.8,0.,4.8,0.,4.8
1979-07-24 12:07:15.380 ,6,0,3.,4.8,0.,4.8,0.,4.8,0.,4.8
1979-07-24 12:07:20.180 ,6,0,1.,4.8,0.,4.8,0.,4.8,0.,4.8
1979-07-24 12:07:24.980 ,6,0,1.,4.8,0.,4.8,0.,4.8,0.,4.8
1979-07-24 12:07:29.780 ,6,0,1.,4.8,1.,4.8,0.,4.8,0.,4.8
1979-07-24 12:07:34.580 ,6,0,4.,4.8,0.,4.8,0.,4.8,0.,4.8
1979-07-24 12:07:39.380 ,6,0,2.,4.8,0.,4.8,0.,4.8,0.,4.8
1979-07-24 12:07:44.180 ,6,0,3.,4.8,0.,4.8,0.,4.8,0.,4.8
1979-07-24 12:07:48.980 ,6,0,2.,4.8,0.,4.8,0.,4.8,0.,4.8
1979-07-24 12:07:53.780 ,6,0,1.,4.8,0.,4.8,0.,4.8,0.,4.8
1979-07-24 12:07:58.580 ,5,0,1.,4.8,0.,4.8,0.,4.8,0.,4.8
1979-07-24 12:08:03.380 ,5,0,2.,4.8,0.,4.8,1.,4.8,0.,4.8
1979-07-24 12:08:08.180 ,5,0,1.,4.8,0.,4.8,0.,4.8,0.,4.8
1979-07-24 12:08:12.980 ,5,0,1.,4.8,0.,4.8,0.,4.8,0.,4.8
1979-07-24 12:08:17.780 ,5,0,2.,4.8,0.,4.8,0.,4.8,0.,4.8
1979-07-24 12:08:22.580 ,5,0,2.,4.8,0.,4.8,0.,4.8,0.,4.8
1979-07-24 12:08:27.380 ,5,0,4.,4.8,0.,4.8,0.,4.8,0.,4.8
1979-07-24 12:08:32.180 ,5,0,2.,4.8,1.,4.8,0.,4.8,0.,4.8
1979-07-24 12:08:36.980 ,5,0,1.,4.8,0.,4.8,0.,4.8,0.,4.8
1979-07-24 12:08:41.780 ,5,0,2.,4.8,1.,4.8,0.,4.8,0.,4.8
1979-07-24 12:08:46.580 ,4,0,2.,4.8,1.,4.8,0.,4.8,0.,4.8
1979-07-24 12:08:51.380 ,4,0,6.,4.8,0.,4.8,0.,4.8,0.,4.8
1979-07-24 12:08:56.180 ,4,0,3.,4.8,0.,4.8,1.,4.8,0.,4.8
1979-07-24 12:09:00.980 ,4,0,2.,4.8,0.,4.8,0.,4.8,1.,4.8
1979-07-24 12:09:05.780 ,4,0,6.,4.8,0.,4.8,0.,4.8,0.,4.8
1979-07-24 12:09:10.580 ,4,0,7.,4.8,0.,4.8,0.,4.8,0.,4.8
1979-07-24 12:09:15.380 ,4,0,1.,4.8,0.,4.8,0.,4.8,0.,4.8
1979-07-24 12:09:20.180 ,4,0,4.,4.8,0.,4.8,0.,4.8,0.,4.8
1979-07-24 12:09:24.980 ,4,0,0.,4.8,0.,4.8,0.,4.8,0.,4.8
1979-07-24 12:09:29.780 ,4,0,4.,4.8,0.,4.8,0.,4.8,0.,4.8
1979-07-24 12:09:34.580 ,3,0,4.,4.8,0.,4.8,0.,4.8,0.,4.8
1979-07-24 12:09:39.380 ,3,0,4.,4.8,0.,4.8,0.,4.8,0.,4.8
1979-07-24 12:09:44.180 ,3,0,2.,4.8,0.,4.8,0.,4.8,0.,4.8
1979-07-24 12:09:48.980 ,3,0,0.,4.8,0.,4.8,0.,4.8,0.,4.8
1979-07-24 12:09:53.780 ,3,0,3.,4.8,0.,4.8,0.,4.8,0.,4.8
1979-07-24 12:09:58.580 ,3,0,6.,4.8,0.,4.8,0.,4.8,0.,4.8
1979-07-24 12:10:03.380 ,3,0,2.,4.8,0.,4.8,0.,4.8,0.,4.8
1979-07-24 12:10:08.180 ,3,0,0.,4.8,0.,4.8,0.,4.8,0.,4.8
1979-07-24 12:10:12.980 ,3,0,2.,4.8,0.,4.8,0.,4.8,0.,4.8
1979-07-24 12:10:17.780 ,3,0,4.,4.8,0.,4.8,0.,4.8,1.,4.8
1979-07-24 12:10:22.580 ,2,0,1.,4.8,0.,4.8,0.,4.8,0.,4.8
1979-07-24 12:10:27.380 ,2,0,7.,4.8,0.,4.8,0.,4.8,0.,4.8
1979-07-24 12:10:32.180 ,2,0,2.,4.8,0.,4.8,0.,4.8,0.,4.8
1979-07-24 12:10:36.980 ,2,0,2.,4.8,0.,4.8,0.,4.8,1.,4.8
1979-07-24 12:10:41.780 ,2,0,4.,4.8,0.,4.8,0.,4.8,0.,4.8
1979-07-24 12:10:46.580 ,2,0,2.,4.8,0.,4.8,1.,4.8,0.,4.8
1979-07-24 12:10:51.380 ,2,0,2.,4.8,0.,4.8,0.,4.8,0.,4.8
1979-07-24 12:10:56.180 ,2,0,1.,4.8,0.,4.8,0.,4.8,0.,4.8
1979-07-24 12:11:00.980 ,2,0,3.,4.8,0.,4.8,0.,4.8,0.,4.8
1979-07-24 12:11:05.780 ,2,0,2.,4.8,0.,4.8,0.,4.8,0.,4.8
1979-07-24 12:11:10.580 ,1,0,2.,4.8,0.,4.8,0.,4.8,0.,4.8
1979-07-24 12:11:15.380 ,1,0,1.,4.8,0.,4.8,0.,4.8,0.,4.8
1979-07-24 12:11:20.180 ,1,0,5.,4.8,1.,4.8,0.,4.8,0.,4.8
1979-07-24 12:11:24.980 ,1,0,0.,4.8,0.,4.8,0.,4.8,0.,4.8
1979-07-24 12:11:29.780 ,1,0,1.,4.8,0.,4.8,0.,4.8,0.,4.8
1979-07-24 12:11:34.580 ,1,0,2.,4.8,0.,4.8,0.,4.8,0.,4.8
1979-07-24 12:11:39.380 ,1,0,0.,4.8,1.,4.8,0.,4.8,0.,4.8
1979-07-24 12:11:44.180 ,1,0,4.,4.8,0.,4.8,0.,4.8,0.,4.8
1979-07-24 12:11:48.980 ,1,0,3.,4.8,0.,4.8,0.,4.8,0.,4.8
1979-07-24 12:11:53.780 ,1,0,3.,4.8,0.,4.8,1.,4.8,0.,4.8
1979-07-24 12:11:58.580 ,0,0,0.,4.8,0.,4.8,0.,4.8,0.,4.8
1979-07-24 12:12:03.380 ,0,0,1.,4.8,0.,4.8,0.,4.8,0.,4.8
1979-07-24 12:12:08.180 ,0,0,1.,4.8,0.,4.8,0.,4.8,0.,4.8
1979-07-24 12:12:12.980 ,0,0,3.,4.8,0.,4.8,0.,4.8,0.,4.8
1979-07-24 12:12:17.780 ,0,0,3.,4.8,0.,4.8,1.,4.8,0.,4.8
1979-07-24 12:12:22.580 ,0,0,5.,4.8,0.,4.8,0.,4.8,0.,4.8
1979-07-24 12:12:27.380 ,0,0,1.,4.8,0.,4.8,0.,4.8,0.,4.8
1979-07-24 12:12:32.180 ,0,0,1.,4.8,0.,4.8,0.,4.8,0.,4.8
1979-07-24 12:12:36.980 ,0,0,2.,4.8,0.,4.8,0.,4.8,0.,4.8
1979-07-24 12:12:41.780 ,0,0,3.,4.8,0.,4.8,0.,4.8,0.,4.8
1979-07-24 12:12:46.580 ,0,0,3.,4.8,0.,4.8,0.,4.8,0.,4.8
1979-07-24 12:12:51.380 ,0,0,1.,4.8,0.,4.8,0.,4.8,0.,4.8
1979-07-24 12:12:56.180 ,0,0,2.,4.8,0.,4.8,0.,4.8,0.,4.8
1979-07-24 12:13:00.980 ,0,0,1.,4.8,0.,4.8,0.,4.8,0.,4.8
1979-07-24 12:13:05.780 ,0,0,0.,4.8,0.,4.8,0.,4.8,0.,4.8
1979-07-24 12:13:10.580 ,0,0,5.,4.8,0.,4.8,0.,4.8,0.,4.8
1979-07-24 12:13:15.380 ,0,0,1.,4.8,0.,4.8,0.,4.8,0.,4.8
1979-07-24 12:13:20.180 ,0,0,4.,4.8,0.,4.8,0.,4.8,0.,4.8
1979-07-24 12:13:24.980 ,0,0,2.,4.8,0.,4.8,0.,4.8,0.,4.8
1979-07-24 12:13:29.780 ,0,0,3.,4.8,0.,4.8,1.,4.8,0.,4.8
1979-07-24 12:13:34.580 ,1,0,1.,4.8,0.,4.8,0.,4.8,0.,4.8
1979-07-24 12:13:39.380 ,1,0,0.,4.8,0.,4.8,0.,4.8,0.,4.8
1979-07-24 12:13:44.180 ,1,0,2.,4.8,0.,4.8,2.,4.8,0.,4.8
1979-07-24 12:13:48.980 ,1,0,3.,4.8,0.,4.8,0.,4.8,0.,4.8
1979-07-24 12:13:53.780 ,1,0,4.,4.8,0.,4.8,0.,4.8,0.,4.8
1979-07-24 12:13:58.580 ,1,0,1.,4.8,0.,4.8,0.,4.8,1.,4.8
1979-07-24 12:14:03.380 ,1,0,3.,4.8,0.,4.8,0.,4.8,0.,4.8
1979-07-24 12:14:08.180 ,1,0,6.,4.8,0.,4.8,0.,4.8,0.,4.8
1979-07-24 12:14:12.980 ,1,0,2.,4.8,0.,4.8,0.,4.8,0.,4.8
1979-07-24 12:14:17.780 ,1,0,3.,4.8,0.,4.8,0.,4.8,0.,4.8
1979-07-24 12:14:22.580 ,2,0,3.,4.8,0.,4.8,0.,4.8,0.,4.8
1979-07-24 12:14:27.380 ,2,0,0.,4.8,1.,4.8,0.,4.8,0.,4.8
1979-07-24 12:14:32.180 ,2,0,0.,4.8,0.,4.8,0.,4.8,0.,4.8
1979-07-24 12:14:36.980 ,2,0,2.,4.8,0.,4.8,0.,4.8,0.,4.8
1979-07-24 12:14:41.780 ,2,0,1.,4.8,0.,4.8,0.,4.8,0.,4.8
1979-07-24 12:14:46.580 ,2,0,3.,4.8,0.,4.8,0.,4.8,0.,4.8
1979-07-24 12:14:51.380 ,2,0,2.,4.8,0.,4.8,0.,4.8,0.,4.8
1979-07-24 12:14:56.180 ,2,0,1.,4.8,1.,4.8,0.,4.8,0.,4.8
1979-07-24 12:15:00.980 ,2,0,2.,4.8,0.,4.8,0.,4.8,0.,4.8
1979-07-24 12:15:05.780 ,2,0,1.,4.8,0.,4.8,0.,4.8,0.,4.8
1979-07-24 12:15:10.580 ,3,0,4.,4.8,0.,4.8,0.,4.8,0.,4.8
1979-07-24 12:15:15.380 ,3,0,0.,4.8,0.,4.8,0.,4.8,0.,4.8
1979-07-24 12:15:20.180 ,3,0,2.,4.8,0.,4.8,0.,4.8,0.,4.8
1979-07-24 12:15:24.980 ,3,0,2.,4.8,0.,4.8,0.,4.8,0.,4.8
1979-07-24 12:15:29.780 ,3,0,3.,4.8,0.,4.8,0.,4.8,0.,4.8
1979-07-24 12:15:34.580 ,3,0,3.,4.8,0.,4.8,1.,4.8,1.,4.8
1979-07-24 12:15:39.380 ,3,0,2.,4.8,0.,4.8,2.,4.8,0.,4.8
1979-07-24 12:15:44.180 ,3,0,1.,4.8,0.,4.8,0.,4.8,0.,4.8
1979-07-24 12:15:48.980 ,3,0,1.,4.8,0.,4.8,0.,4.8,0.,4.8
1979-07-24 12:15:53.780 ,3,0,0.,4.8,0.,4.8,1.,4.8,0.,4.8
1979-07-24 12:15:58.580 ,4,0,3.,4.8,0.,4.8,0.,4.8,0.,4.8
1979-07-24 12:16:03.380 ,4,0,0.,4.8,0.,4.8,0.,4.8,0.,4.8
1979-07-24 12:16:08.180 ,4,0,3.,4.8,0.,4.8,0.,4.8,0.,4.8
1979-07-24 12:16:12.980 ,4,0,0.,4.8,1.,4.8,0.,4.8,0.,4.8
1979-07-24 12:16:17.780 ,4,0,0.,4.8,1.,4.8,0.,4.8,0.,4.8
1979-07-24 12:16:22.580 ,4,0,1.,4.8,0.,4.8,0.,4.8,0.,4.8
1979-07-24 12:16:27.380 ,4,0,1.,4.8,0.,4.8,0.,4.8,0.,4.8
1979-07-24 12:16:32.180 ,4,0,3.,4.8,0.,4.8,0.,4.8,0.,4.8
1979-07-24 12:16:36.980 ,4,0,1.,4.8,0.,4.8,0.,4.8,0.,4.8
1979-07-24 12:16:41.780 ,4,0,2.,4.8,0.,4.8,0.,4.8,0.,4.8
1979-07-24 12:16:46.580 ,5,0,2.,4.8,0.,4.8,0.,4.8,0.,4.8
1979-07-24 12:16:51.380 ,5,0,2.,4.8,0.,4.8,0.,4.8,0.,4.8
1979-07-24 12:16:56.180 ,5,0,3.,4.8,0.,4.8,0.,4.8,0.,4.8
1979-07-24 12:17:00.980 ,5,0,1.,4.8,0.,4.8,0.,4.8,0.,4.8
1979-07-24 12:17:05.780 ,5,0,4.,4.8,0.,4.8,0.,4.8,1.,4.8
1979-07-24 12:17:10.580 ,5,0,2.,4.8,0.,4.8,0.,4.8,0.,4.8
1979-07-24 12:17:15.380 ,5,0,1.,4.8,0.,4.8,0.,4.8,0.,4.8
1979-07-24 12:17:20.180 ,5,0,2.,4.8,0.,4.8,0.,4.8,0.,4.8
1979-07-24 12:17:24.980 ,5,0,1.,4.8,0.,4.8,1.,4.8,0.,4.8
1979-07-24 12:17:29.780 ,5,0,0.,4.8,1.,4.8,0.,4.8,1.,4.8
1979-07-24 12:17:34.580 ,6,0,0.,4.8,0.,4.8,0.,4.8,0.,4.8
1979-07-24 12:17:39.380 ,6,0,1.,4.8,0.,4.8,0.,4.8,0.,4.8
1979-07-24 12:17:44.180 ,6,0,1.,4.8,0.,4.8,0.,4.8,0.,4.8
1979-07-24 12:17:48.980 ,6,0,0.,4.8,0.,4.8,0.,4.8,0.,4.8
1979-07-24 12:17:53.780 ,6,0,2.,4.8,0.,4.8,0.,4.8,1.,4.8
1979-07-24 12:17:58.580 ,6,0,4.,4.8,0.,4.8,0.,4.8,0.,4.8
1979-07-24 12:18:03.380 ,6,0,2.,4.8,0.,4.8,0.,4.8,0.,4.8
1979-07-24 12:18:08.180 ,6,0,4.,4.8,0.,4.8,0.,4.8,0.,4.8
1979-07-24 12:18:12.980 ,6,0,4.,4.8,0.,4.8,1.,4.8,0.,4.8
1979-07-24 12:18:17.780 ,6,0,3.,4.8,0.,4.8,0.,4.8,0.,4.8
1979-07-24 12:18:22.580 ,7,0,1.,4.8,0.,4.8,0.,4.8,0.,4.8
1979-07-24 12:18:27.380 ,7,0,1.,4.8,0.,4.8,0.,4.8,0.,4.8
1979-07-24 12:18:32.180 ,7,0,1.,4.8,0.,4.8,0.,4.8,0.,4.8
1979-07-24 12:18:36.980 ,7,0,2.,4.8,0.,4.8,1.,4.8,0.,4.8
1979-07-24 12:18:41.780 ,7,0,3.,4.8,0.,4.8,0.,4.8,0.,4.8
1979-07-24 12:18:46.580 ,7,0,1.,4.8,0.,4.8,0.,4.8,0.,4.8
1979-07-24 12:18:51.380 ,7,0,2.,4.8,0.,4.8,0.,4.8,0.,4.8
1979-07-24 12:18:56.180 ,7,0,0.,4.8,0.,4.8,0.,4.8,0.,4.8
1979-07-24 12:19:00.980 ,7,0,0.,4.8,0.,4.8,0.,4.8,0.,4.8
1979-07-24 12:19:05.780 ,7,0,2.,4.8,0.,4.8,0.,4.8,0.,4.8
1979-07-24 12:19:10.580 ,3,1,2.,4.8,0.,4.8,0.,4.8,0.,4.8
1979-07-24 12:19:15.380 ,3,1,2.,4.8,0.,4.8,0.,4.8,0.,4.8
1979-07-24 12:19:20.180 ,3,1,2.,4.8,0.,4.8,0.,4.8,0.,4.8
1979-07-24 12:19:24.980 ,3,1,1.,4.8,0.,4.8,0.,4.8,0.,4.8
1979-07-24 12:19:29.780 ,3,1,1.,4.8,0.,4.8,0.,4.8,0.,4.8
1979-07-24 12:19:34.580 ,0,1,5.,4.8,0.,4.8,0.,4.8,0.,4.8
1979-07-24 12:19:39.380 ,0,1,1.,4.8,0.,4.8,0.,4.8,0.,4.8
1979-07-24 12:19:44.180 ,0,1,2.,4.8,0.,4.8,0.,4.8,0.,4.8
1979-07-24 12:19:48.980 ,0,1,1.,4.8,0.,4.8,0.,4.8,0.,4.8
1979-07-24 12:19:53.780 ,0,1,4.,4.8,0.,4.8,0.,4.8,0.,4.8
1979-07-24 12:19:58.580 ,4,1,4.,4.8,0.,4.8,0.,4.8,0.,4.8
1979-07-24 12:20:03.380 ,4,1,,0,,0,,0,,0
1979-07-24 12:20:08.180 ,4,1,3.,4.8,0.,4.8,0.,4.8,0.,4.8
1979-07-24 12:20:12.980 ,4,1,4.,4.8,0.,4.8,0.,4.8,0.,4.8
1979-07-24 12:20:17.780 ,4,1,0.,4.8,0.,4.8,0.,4.8,0.,4.8
1979-07-24 12:20:22.580 ,7,1,0.,4.8,0.,4.8,0.,4.8,0.,4.8
1979-07-24 12:20:27.380 ,7,1,3.,4.8,0.,4.8,0.,4.8,0.,4.8
1979-07-24 12:20:32.180 ,7,1,4.,4.8,0.,4.8,0.,4.8,0.,4.8
1979-07-24 12:20:36.980 ,7,1,1.,4.8,0.,4.8,0.,4.8,0.,4.8
1979-07-24 12:20:41.780 ,7,1,0.,4.8,0.,4.8,0.,4.8,0.,4.8
1979-07-24 12:20:46.580 ,3,1,0.,4.8,0.,4.8,0.,4.8,0.,4.8
1979-07-24 12:20:51.380 ,3,1,0.,4.8,0.,4.8,0.,4.8,1.,4.8
1979-07-24 12:20:56.180 ,3,1,0.,4.8,0.,4.8,0.,4.8,0.,4.8
1979-07-24 12:21:00.980 ,3,1,1.,4.8,0.,4.8,0.,4.8,0.,4.8
1979-07-24 12:21:05.780 ,3,1,0.,4.8,0.,4.8,0.,4.8,0.,4.8
1979-07-24 12:21:10.580 ,0,1,2.,4.8,0.,4.8,0.,4.8,0.,4.8
1979-07-24 12:21:15.380 ,0,1,1.,4.8,0.,4.8,0.,4.8,0.,4.8
1979-07-24 12:21:20.180 ,0,1,2.,4.8,0.,4.8,0.,4.8,0.,4.8
1979-07-24 12:21:24.980 ,0,1,3.,4.8,0.,4.8,0.,4.8,0.,4.8
1979-07-24 12:21:29.780 ,0,1,2.,4.8,0.,4.8,0.,4.8,0.,4.8
1979-07-24 12:21:34.580 ,4,1,1.,4.8,0.,4.8,0.,4.8,1.,4.8
1979-07-24 12:21:39.380 ,4,1,3.,4.8,0.,4.8,0.,4.8,0.,4.8
1979-07-24 12:21:44.180 ,4,1,1.,4.8,0.,4.8,0.,4.8,0.,4.8
1979-07-24 12:21:48.980 ,4,1,3.,4.8,0.,4.8,0.,4.8,0.,4.8
1979-07-24 12:21:53.780 ,4,1,4.,4.8,0.,4.8,0.,4.8,0.,4.8
1979-07-24 12:21:58.580 ,7,1,1.,4.8,0.,4.8,1.,4.8,0.,4.8
1979-07-24 12:22:03.380 ,7,1,3.,4.8,0.,4.8,0.,4.8,0.,4.8
1979-07-24 12:22:08.180 ,7,1,3.,4.8,1.,4.8,0.,4.8,0.,4.8
1979-07-24 12:22:12.980 ,7,1,0.,4.8,0.,4.8,0.,4.8,0.,4.8
1979-07-24 12:22:17.780 ,7,1,1.,4.8,0.,4.8,0.,4.8,0.,4.8
1979-07-24 12:22:22.580 ,3,1,1.,4.8,0.,4.8,0.,4.8,0.,4.8
1979-07-24 12:22:27.380 ,3,1,1.,4.8,0.,4.8,1.,4.8,0.,4.8
1979-07-24 12:22:32.180 ,3,1,2.,4.8,0.,4.8,0.,4.8,0.,4.8
1979-07-24 12:22:36.980 ,3,1,2.,4.8,0.,4.8,0.,4.8,1.,4.8
1979-07-24 12:22:41.780 ,3,1,3.,4.8,0.,4.8,0.,4.8,0.,4.8
1979-07-24 12:22:46.580 ,0,1,2.,4.8,0.,4.8,2.,4.8,0.,4.8
1979-07-24 12:22:51.380 ,0,1,3.,4.8,0.,4.8,0.,4.8,0.,4.8
1979-07-24 12:22:56.180 ,0,1,5.,4.8,0.,4.8,0.,4.8,0.,4.8
1979-07-24 12:23:00.980 ,0,1,0.,4.8,0.,4.8,0.,4.8,0.,4.8
1979-07-24 12:23:05.780 ,0,1,2.,4.8,0.,4.8,0.,4.8,0.,4.8
1979-07-24 12:23:10.580 ,4,1,2.,4.8,0.,4.8,0.,4.8,0.,4.8
1979-07-24 12:23:15.380 ,4,1,3.,4.8,0.,4.8,0.,4.8,0.,4.8
1979-07-24 12:23:20.180 ,4,1,1.,4.8,0.,4.8,0.,4.8,0.,4.8
1979-07-24 12:23:24.980 ,4,1,5.,4.8,0.,4.8,1.,4.8,0.,4.8
1979-07-24 12:23:29.780 ,4,1,4.,4.8,0.,4.8,0.,4.8,0.,4.8
1979-07-24 12:23:34.580 ,7,1,4.,4.8,0.,4.8,0.,4.8,0.,4.8
1979-07-24 12:23:39.380 ,7,1,0.,4.8,0.,4.8,0.,4.8,0.,4.8
1979-07-24 12:23:44.180 ,7,1,4.,4.8,0.,4.8,0.,4.8,0.,4.8
1979-07-24 12:23:48.980 ,7,1,2.,4.8,0.,4.8,0.,4.8,0.,4.8
1979-07-24 12:23:53.780 ,7,1,0.,4.8,0.,4.8,0.,4.8,0.,4.8
1979-07-24 12:23:58.580 ,3,1,0.,4.8,0.,4.8,0.,4.8,0.,4.8
1979-07-24 12:24:03.380 ,3,1,3.,4.8,0.,4.8,0.,4.8,0.,4.8
1979-07-24 12:24:08.180 ,3,1,0.,4.8,0.,4.8,0.,4.8,0.,4.8
1979-07-24 12:24:12.980 ,3,1,2.,4.8,0.,4.8,0.,4.8,0.,4.8
1979-07-24 12:24:17.780 ,3,1,3.,4.8,0.,4.8,0.,4.8,0.,4.8
1979-07-24 12:24:22.580 ,0,1,0.,4.8,0.,4.8,0.,4.8,0.,4.8
1979-07-24 12:24:27.380 ,0,1,1.,4.8,0.,4.8,0.,4.8,0.,4.8
1979-07-24 12:24:32.180 ,0,1,1.,4.8,0.,4.8,0.,4.8,0.,4.8
1979-07-24 12:24:36.980 ,0,1,2.,4.8,0.,4.8,0.,4.8,0.,4.8
1979-07-24 12:24:41.780 ,0,1,5.,4.8,0.,4.8,0.,4.8,0.,4.8
1979-07-24 12:24:46.580 ,4,1,3.,4.8,0.,4.8,0.,4.8,0.,4.8
1979-07-24 12:24:51.380 ,4,1,2.,4.8,0.,4.8,0.,4.8,0.,4.8
1979-07-24 12:24:56.180 ,4,1,1.,4.8,0.,4.8,1.,4.8,0.,4.8
1979-07-24 12:25:00.980 ,4,1,1.,4.8,0.,4.8,0.,4.8,0.,4.8
1979-07-24 12:25:05.780 ,4,1,2.,4.8,0.,4.8,0.,4.8,0.,4.8
1979-07-24 12:25:10.580 ,7,1,7.,4.8,0.,4.8,0.,4.8,0.,4.8
1979-07-24 12:25:15.380 ,7,1,0.,4.8,0.,4.8,0.,4.8,0.,4.8
1979-07-24 12:25:20.180 ,7,1,3.,4.8,0.,4.8,0.,4.8,0.,4.8
1979-07-24 12:25:24.980 ,7,1,1.,4.8,0.,4.8,0.,4.8,0.,4.8
1979-07-24 12:25:29.780 ,7,1,2.,4.8,0.,4.8,0.,4.8,0.,4.8
1979-07-24 12:26:22.580 ,0,0,4.,4.8,0.,4.8,0.,4.8,0.,4.8
1979-07-24 12:26:27.380 ,0,0,0.,4.8,0.,4.8,0.,4.8,0.,4.8
1979-07-24 12:26:32.180 ,0,0,1.,4.8,1.,4.8,0.,4.8,0.,4.8
1979-07-24 12:26:36.980 ,0,0,3.,4.8,0.,4.8,0.,4.8,0.,4.8
1979-07-24 12:26:41.780 ,0,0,2.,4.8,0.,4.8,0.,4.8,0.,4.8
1979-07-24 12:26:46.580 ,7,1,0.,4.8,0.,4.8,1.,4.8,0.,4.8
1979-07-24 12:26:51.380 ,7,1,2.,4.8,0.,4.8,0.,4.8,0.,4.8
1979-07-24 12:26:56.180 ,7,1,2.,4.8,0.,4.8,0.,4.8,0.,4.8
1979-07-24 12:27:00.980 ,7,1,1.,4.8,0.,4.8,0.,4.8,0.,4.8
1979-07-24 12:27:05.780 ,7,1,0.,4.8,0.,4.8,0.,4.8,0.,4.8
1979-07-24 12:27:10.580 ,3,1,1.,4.8,0.,4.8,0.,4.8,0.,4.8
1979-07-24 12:27:15.380 ,3,1,2.,4.8,0.,4.8,1.,4.8,0.,4.8
1979-07-24 12:27:20.180 ,3,1,4.,4.8,0.,4.8,1.,4.8,0.,4.8
1979-07-24 12:27:24.980 ,3,1,0.,4.8,0.,4.8,0.,4.8,0.,4.8
1979-07-24 12:27:29.780 ,3,1,3.,4.8,0.,4.8,0.,4.8,0.,4.8
1979-07-24 12:27:34.580 ,0,1,1.,4.8,0.,4.8,0.,4.8,0.,4.8
1979-07-24 12:27:39.380 ,0,1,3.,4.8,0.,4.8,0.,4.8,0.,4.8
1979-07-24 12:27:44.180 ,0,1,0.,4.8,0.,4.8,0.,4.8,0.,4.8
1979-07-24 12:27:48.980 ,0,1,2.,4.8,0.,4.8,0.,4.8,0.,4.8
1979-07-24 12:27:53.780 ,0,1,1.,4.8,0.,4.8,0.,4.8,0.,4.8
1979-07-24 12:27:58.580 ,4,1,0.,4.8,0.,4.8,1.,4.8,0.,4.8
1979-07-24 12:28:03.380 ,4,1,3.,4.8,0.,4.8,0.,4.8,0.,4.8
1979-07-24 12:28:08.180 ,4,1,1.,4.8,0.,4.8,0.,4.8,0.,4.8
1979-07-24 12:28:12.980 ,4,1,4.,4.8,0.,4.8,0.,4.8,0.,4.8
1979-07-24 12:28:17.780 ,4,1,4.,4.8,0.,4.8,0.,4.8,0.,4.8
1979-07-24 12:28:22.580 ,7,1,2.,4.8,0.,4.8,0.,4.8,0.,4.8
1979-07-24 12:28:27.380 ,7,1,5.,4.8,0.,4.8,0.,4.8,0.,4.8
1979-07-24 12:28:32.180 ,7,1,2.,4.8,0.,4.8,0.,4.8,0.,4.8
1979-07-24 12:28:36.980 ,7,1,0.,4.8,0.,4.8,1.,4.8,0.,4.8
1979-07-24 12:28:41.780 ,7,1,3.,4.8,0.,4.8,1.,4.8,0.,4.8
1979-07-24 12:28:46.580 ,3,1,0.,4.8,0.,4.8,1.,4.8,0.,4.8
1979-07-24 12:28:51.380 ,3,1,5.,4.8,0.,4.8,0.,4.8,1.,4.8
1979-07-24 12:28:56.180 ,3,1,3.,4.8,0.,4.8,0.,4.8,0.,4.8
1979-07-24 12:29:00.980 ,3,1,5.,4.8,0.,4.8,0.,4.8,0.,4.8
1979-07-24 12:29:05.780 ,3,1,4.,4.8,0.,4.8,0.,4.8,0.,4.8
1979-07-24 12:29:10.580 ,0,1,2.,4.8,0.,4.8,0.,4.8,0.,4.8
1979-07-24 12:29:15.380 ,0,1,2.,4.8,0.,4.8,0.,4.8,0.,4.8
1979-07-24 12:29:20.180 ,0,1,2.,4.8,0.,4.8,0.,4.8,1.,4.8
1979-07-24 12:29:24.980 ,0,1,2.,4.8,0.,4.8,0.,4.8,0.,4.8
1979-07-24 12:29:29.780 ,0,1,2.,4.8,0.,4.8,0.,4.8,0.,4.8
1979-07-24 12:29:34.580 ,0,0,1.,4.8,0.,4.8,0.,4.8,0.,4.8
1979-07-24 12:29:39.380 ,0,0,0.,4.8,1.,4.8,0.,4.8,0.,4.8
1979-07-24 12:29:44.180 ,0,0,2.,4.8,0.,4.8,0.,4.8,0.,4.8
1979-07-24 12:29:48.980 ,0,0,3.,4.8,0.,4.8,0.,4.8,0.,4.8
1979-07-24 12:29:53.780 ,0,0,0.,4.8,0.,4.8,0.,4.8,0.,4.8
1979-07-24 12:29:58.580 ,0,0,4.,4.8,0.,4.8,0.,4.8,0.,4.8
1979-07-24 12:30:03.380 ,0,0,3.,4.8,0.,4.8,0.,4.8,0.,4.8
1979-07-24 12:30:08.180 ,0,0,1.,4.8,0.,4.8,0.,4.8,0.,4.8
1979-07-24 12:30:12.980 ,0,0,2.,4.8,0.,4.8,0.,4.8,0.,4.8
1979-07-24 12:30:17.780 ,0,0,1.,4.8,0.,4.8,0.,4.8,0.,4.8
1979-07-24 12:30:22.580 ,5,0,2.,4.8,0.,4.8,1.,4.8,0.,4.8
1979-07-24 12:30:27.380 ,5,0,4.,4.8,0.,4.8,0.,4.8,0.,4.8
1979-07-24 12:30:32.180 ,5,0,1.,4.8,0.,4.8,0.,4.8,0.,4.8
1979-07-24 12:30:36.980 ,5,0,2.,4.8,0.,4.8,0.,4.8,0.,4.8
1979-07-24 12:30:41.780 ,5,0,3.,4.8,0.,4.8,0.,4.8,0.,4.8
1979-07-24 12:30:46.580 ,5,0,1.,4.8,0.,4.8,0.,4.8,0.,4.8
1979-07-24 12:30:51.380 ,5,0,1.,4.8,0.,4.8,0.,4.8,0.,4.8
1979-07-24 12:30:56.180 ,5,0,3.,4.8,0.,4.8,0.,4.8,0.,4.8
1979-07-24 12:31:00.980 ,5,0,0.,4.8,0.,4.8,0.,4.8,0.,4.8
1979-07-24 12:31:05.780 ,5,0,2.,4.8,0.,4.8,0.,4.8,0.,4.8
1979-07-24 12:31:10.580 ,4,0,2.,4.8,0.,4.8,0.,4.8,0.,4.8
1979-07-24 12:31:15.380 ,4,0,2.,4.8,0.,4.8,0.,4.8,0.,4.8
1979-07-24 12:31:20.180 ,4,0,1.,4.8,0.,4.8,0.,4.8,0.,4.8
1979-07-24 12:31:24.980 ,4,0,2.,4.8,0.,4.8,0.,4.8,0.,4.8
1979-07-24 12:31:29.780 ,4,0,3.,4.8,0.,4.8,0.,4.8,0.,4.8
1979-07-24 12:31:34.580 ,4,0,1.,4.8,0.,4.8,0.,4.8,0.,4.8
1979-07-24 12:31:39.380 ,4,0,2.,4.8,0.,4.8,0.,4.8,0.,4.8
1979-07-24 12:31:44.180 ,4,0,2.,4.8,0.,4.8,0.,4.8,0.,4.8
1979-07-24 12:31:48.980 ,4,0,2.,4.8,0.,4.8,0.,4.8,0.,4.8
1979-07-24 12:31:53.780 ,4,0,1.,4.8,0.,4.8,0.,4.8,0.,4.8
1979-07-24 12:31:58.580 ,3,0,3.,4.8,0.,4.8,0.,4.8,0.,4.8
1979-07-24 12:32:03.380 ,3,0,2.,4.8,0.,4.8,0.,4.8,0.,4.8
1979-07-24 12:32:08.180 ,3,0,4.,4.8,0.,4.8,0.,4.8,1.,4.8
1979-07-24 12:32:12.980 ,3,0,3.,4.8,0.,4.8,0.,4.8,0.,4.8
1979-07-24 12:32:17.780 ,3,0,3.,4.8,0.,4.8,0.,4.8,0.,4.8
1979-07-24 12:32:22.580 ,3,0,3.,4.8,0.,4.8,0.,4.8,0.,4.8
1979-07-24 12:32:27.380 ,3,0,0.,4.8,0.,4.8,0.,4.8,0.,4.8
1979-07-24 12:32:32.180 ,3,0,2.,4.8,0.,4.8,0.,4.8,0.,4.8
1979-07-24 12:32:36.980 ,3,0,1.,4.8,0.,4.8,0.,4.8,0.,4.8
1979-07-24 12:32:41.780 ,3,0,1.,4.8,0.,4.8,0.,4.8,0.,4.8
1979-07-24 12:32:46.580 ,2,0,1.,4.8,0.,4.8,0.,4.8,0.,4.8
1979-07-24 12:32:51.380 ,2,0,4.,4.8,0.,4.8,0.,4.8,0.,4.8
1979-07-24 12:32:56.180 ,2,0,2.,4.8,0.,4.8,0.,4.8,0.,4.8
1979-07-24 12:33:00.980 ,2,0,1.,4.8,0.,4.8,0.,4.8,0.,4.8
1979-07-24 12:33:05.780 ,2,0,3.,4.8,0.,4.8,0.,4.8,0.,4.8
1979-07-24 12:33:10.580 ,2,0,3.,4.8,0.,4.8,0.,4.8,0.,4.8
1979-07-24 12:33:15.380 ,2,0,4.,4.8,0.,4.8,0.,4.8,0.,4.8
1979-07-24 12:33:20.180 ,2,0,2.,4.8,0.,4.8,0.,4.8,0.,4.8
1979-07-24 12:33:24.980 ,2,0,3.,4.8,1.,4.8,0.,4.8,0.,4.8
1979-07-24 12:33:29.780 ,2,0,4.,4.8,0.,4.8,0.,4.8,0.,4.8
1979-07-24 12:33:34.580 ,1,0,2.,4.8,0.,4.8,0.,4.8,0.,4.8
1979-07-24 12:33:39.380 ,1,0,1.,4.8,0.,4.8,0.,4.8,0.,4.8
1979-07-24 12:33:44.180 ,1,0,3.,4.8,0.,4.8,0.,4.8,0.,4.8
1979-07-24 12:33:48.980 ,1,0,2.,4.8,0.,4.8,0.,4.8,0.,4.8
1979-07-24 12:33:53.780 ,1,0,2.,4.8,1.,4.8,0.,4.8,0.,4.8
1979-07-24 12:33:58.580 ,1,0,2.,4.8,0.,4.8,1.,4.8,0.,4.8
1979-07-24 12:34:03.380 ,1,0,5.,4.8,0.,4.8,0.,4.8,0.,4.8
1979-07-24 12:34:08.180 ,1,0,,0,,0,,0,,0